EN

Hourly Weather Ladygino

Today, 28 July, Wednesday

Time Temperature Precipitation Wind Pressure Humidity
00:00 +17°C° 0 mm 2 mps 741 mmHg 92%
01:00 +17°C° 0 mm 2 mps 740 mmHg 93%
02:00 +16°C° 0 mm 2 mps 740 mmHg 94%
03:00 +16°C° 0 mm 1 mps 740 mmHg 93%
04:00 +18°C° 0 mm 1 mps 739 mmHg 92%
05:00 +18°C° 0 mm 1 mps 739 mmHg 92%
06:00 +18°C° 0.5 mm 1 mps 739 mmHg 93%
07:00 +18°C° 0.5 mm 2 mps 739 mmHg 94%
08:00 +18°C° 0 mm 2 mps 739 mmHg 94%
09:00 +18°C° 0.7 mm 3 mps 739 mmHg 94%
10:00 +18°C° 0.7 mm 3 mps 738 mmHg 95%
11:00 +18°C° 0.7 mm 4 mps 738 mmHg 96%
12:00 +18°C° 0.7 mm 4 mps 738 mmHg 96%
13:00 +18°C° 0.7 mm 4 mps 737 mmHg 96%
14:00 +17°C° 0 mm 4 mps 737 mmHg 96%
15:00 +18°C° 0.1 mm 3 mps 736 mmHg 97%
16:00 +18°C° 0.1 mm 2 mps 736 mmHg 97%
17:00 +19°C° 0.1 mm 1 mps 736 mmHg 97%
18:00 +19°C° 0 mm 1 mps 735 mmHg 97%
19:00 +19°C° 0 mm 1 mps 735 mmHg 98%
20:00 +17°C° 0 mm 0 mps 735 mmHg 98%
21:00 +16°C° 0 mm 0 mps 735 mmHg 98%
22:00 +18°C° 0 mm 1 mps 735 mmHg 98%
23:00 +18°C° 0 mm 1 mps 735 mmHg 98%

Tomorrow, 29 July, Thursday

Time Temperature Precipitation Wind Pressure Humidity
00:00 +16°C° 0 mm 1 mps 735 mmHg 98%
01:00 +16°C° 0 mm 1 mps 735 mmHg 98%
02:00 +15°C° 0 mm 1 mps 734 mmHg 98%
03:00 +16°C° 0 mm 1 mps 734 mmHg 98%
04:00 +16°C° 0 mm 1 mps 734 mmHg 98%
05:00 +16°C° 0 mm 1 mps 734 mmHg 97%
06:00 +19°C° 0 mm 1 mps 734 mmHg 93%
07:00 +19°C° 0 mm 2 mps 734 mmHg 88%
08:00 +21°C° 0 mm 2 mps 734 mmHg 83%
09:00 +24°C° 0 mm 3 mps 734 mmHg 72%
10:00 +26°C° 0 mm 3 mps 734 mmHg 62%
11:00 +27°C° 0 mm 3 mps 734 mmHg 51%
12:00 +27°C° 0 mm 3 mps 734 mmHg 50%
13:00 +27°C° 0 mm 3 mps 734 mmHg 49%
14:00 +27°C° 0 mm 3 mps 734 mmHg 48%
15:00 +27°C° 0 mm 2 mps 733 mmHg 52%
16:00 +27°C° 0 mm 2 mps 733 mmHg 55%
17:00 +26°C° 0 mm 1 mps 732 mmHg 58%
18:00 +24°C° 0.2 mm 2 mps 733 mmHg 69%
19:00 +21°C° 0.2 mm 3 mps 733 mmHg 79%
20:00 +19°C° 0.2 mm 4 mps 733 mmHg 90%
21:00 +18°C° 0 mm 3 mps 733 mmHg 92%
22:00 +17°C° 0 mm 2 mps 733 mmHg 94%
23:00 +16°C° 0 mm 2 mps 733 mmHg 96%

Day after tomorrow, 30 July, Friday

Time Temperature Precipitation Wind Pressure Humidity
00:00 +16°C° 0 mm 2 mps 733 mmHg 97%
01:00 +16°C° 0 mm 2 mps 733 mmHg 97%
02:00 +15°C° 0 mm 2 mps 733 mmHg 97%
03:00 +15°C° 0 mm 2 mps 733 mmHg 97%
04:00 +16°C° 0 mm 1 mps 733 mmHg 97%
05:00 +16°C° 0 mm 1 mps 733 mmHg 97%
06:00 +17°C° 0 mm 2 mps 733 mmHg 90%
07:00 +19°C° 0 mm 2 mps 733 mmHg 83%
08:00 +21°C° 0 mm 3 mps 733 mmHg 76%
09:00 +22°C° 0.1 mm 3 mps 733 mmHg 67%
10:00 +25°C° 0.1 mm 4 mps 733 mmHg 58%
11:00 +26°C° 0.1 mm 4 mps 733 mmHg 49%
12:00 +25°C° 0 mm 4 mps 733 mmHg 51%
13:00 +23°C° 0 mm 4 mps 733 mmHg 53%
14:00 +24°C° 0 mm 3 mps 733 mmHg 54%
15:00 +22°C° 0 mm 3 mps 733 mmHg 56%
16:00 +22°C° 0 mm 3 mps 733 mmHg 57%
17:00 +21°C° 0 mm 3 mps 732 mmHg 59%
18:00 +20°C° 0 mm 3 mps 732 mmHg 65%
19:00 +19°C° 0 mm 3 mps 732 mmHg 71%
20:00 +18°C° 0 mm 2 mps 732 mmHg 77%
21:00 +17°C° 0 mm 3 mps 732 mmHg 78%
22:00 +17°C° 0 mm 3 mps 732 mmHg 80%
23:00 +16°C° 0 mm 3 mps 732 mmHg 81%

31 July, Saturday

Time Temperature Precipitation Wind Pressure Humidity
00:00 +16°C° 0 mm 3 mps 732 mmHg 80%
01:00 +16°C° 0 mm 3 mps 732 mmHg 79%
02:00 +14°C° 0 mm 3 mps 732 mmHg 78%
03:00 +14°C° 0 mm 4 mps 732 mmHg 76%
04:00 +14°C° 0 mm 4 mps 732 mmHg 74%
05:00 +14°C° 0 mm 5 mps 731 mmHg 72%
06:00 +16°C° 0 mm 5 mps 731 mmHg 67%
07:00 +17°C° 0 mm 6 mps 732 mmHg 61%
08:00 +20°C° 0 mm 6 mps 732 mmHg 56%
09:00 +21°C° 0 mm 6 mps 732 mmHg 54%
10:00 +22°C° 0 mm 6 mps 732 mmHg 52%
11:00 +23°C° 0 mm 6 mps 732 mmHg 50%
12:00 +23°C° 0 mm 6 mps 732 mmHg 51%
13:00 +23°C° 0 mm 5 mps 733 mmHg 52%
14:00 +23°C° 0 mm 5 mps 733 mmHg 53%
15:00 +25°C° 0 mm 4 mps 733 mmHg 53%
16:00 +25°C° 0 mm 4 mps 733 mmHg 54%
17:00 +25°C° 0 mm 4 mps 734 mmHg 54%
18:00 +22°C° 0 mm 3 mps 734 mmHg 61%
19:00 +20°C° 0 mm 2 mps 734 mmHg 68%
20:00 +19°C° 0 mm 1 mps 734 mmHg 75%
21:00 +18°C° 0 mm 2 mps 734 mmHg 75%
22:00 +17°C° 0 mm 2 mps 734 mmHg 75%
23:00 +16°C° 0 mm 2 mps 734 mmHg 76%

1 August, Sunday

Time Temperature Precipitation Wind Pressure Humidity
00:00 +16°C° 0 mm 2 mps 734 mmHg 73%
01:00 +16°C° 0 mm 2 mps 734 mmHg 71%
02:00 +17°C° 0 mm 2 mps 734 mmHg 69%
03:00 +17°C° 0.1 mm 2 mps 734 mmHg 74%
04:00 +16°C° 0.1 mm 2 mps 733 mmHg 79%
05:00 +16°C° 0.1 mm 1 mps 733 mmHg 83%
06:00 +16°C° 0.8 mm 1 mps 733 mmHg 88%
07:00 +16°C° 0.8 mm 1 mps 733 mmHg 93%
08:00 +16°C° 0.8 mm 1 mps 733 mmHg 98%
09:00 +19°C° 0.1 mm 1 mps 733 mmHg 94%
10:00 +19°C° 0.1 mm 2 mps 733 mmHg 90%
11:00 +20°C° 0.1 mm 3 mps 734 mmHg 86%
12:00 +22°C° 0.3 mm 3 mps 734 mmHg 78%
13:00 +23°C° 0.3 mm 4 mps 734 mmHg 70%
14:00 +25°C° 0.3 mm 4 mps 734 mmHg 62%
15:00 +26°C° 0 mm 4 mps 733 mmHg 56%
16:00 +26°C° 0 mm 4 mps 733 mmHg 50%
17:00 +27°C° 0 mm 4 mps 733 mmHg 44%
18:00 +25°C° 0 mm 3 mps 733 mmHg 51%
19:00 +21°C° 0 mm 3 mps 734 mmHg 57%
20:00 +19°C° 0 mm 2 mps 734 mmHg 64%
21:00 +18°C° 0 mm 2 mps 734 mmHg 66%
22:00 +18°C° 0 mm 2 mps 734 mmHg 68%
23:00 +17°C° 0 mm 2 mps 734 mmHg 70%

2 August, Monday

Time Temperature Precipitation Wind Pressure Humidity
00:00 +16°C° 0 mm 2 mps 734 mmHg 73%
01:00 +16°C° 0 mm 1 mps 734 mmHg 77%
02:00 +15°C° 0 mm 1 mps 735 mmHg 80%
03:00 +15°C° 0 mm 1 mps 735 mmHg 81%
04:00 +15°C° 0 mm 1 mps 735 mmHg 82%
05:00 +14°C° 0 mm 0 mps 735 mmHg 83%
06:00 +18°C° 0 mm 1 mps 734 mmHg 75%
07:00 +20°C° 0 mm 1 mps 734 mmHg 68%
08:00 +22°C° 0 mm 1 mps 734 mmHg 61%
09:00 +23°C° 0 mm 1 mps 734 mmHg 56%
10:00 +25°C° 0 mm 2 mps 733 mmHg 52%
11:00 +26°C° 0 mm 2 mps 733 mmHg 48%
12:00 +25°C° 0.1 mm 3 mps 732 mmHg 52%
13:00 +25°C° 0.1 mm 4 mps 732 mmHg 57%
14:00 +23°C° 0.1 mm 4 mps 731 mmHg 62%
15:00 +22°C° 0.3 mm 4 mps 731 mmHg 71%
16:00 +21°C° 0.3 mm 3 mps 730 mmHg 80%
17:00 +19°C° 0.3 mm 2 mps 729 mmHg 90%
18:00 +19°C° 1 mm 3 mps 729 mmHg 91%
19:00 +19°C° 1 mm 3 mps 728 mmHg 93%
20:00 +19°C° 1 mm 3 mps 727 mmHg 95%
21:00 +18°C° 0.1 mm 4 mps 727 mmHg 95%
22:00 +16°C° 0.1 mm 5 mps 727 mmHg 94%
23:00 +16°C° 0.1 mm 6 mps 728 mmHg 94%
Show more